SL-12 DEB, 44982

Orbit data source: Space-Track

SL-12 DEB, 44982 is space debris in HEO originally from a launch on Mon, 25 Dec 2006 UTC launched from the Tyuratam Missile And Space Complex (TTMTR). Debris objects in space refer to the collection of defunct objects orbiting the Earth. Examples of debris include non-operational satellites, rocket bodies, and fragments generated from explosions, collisions, or faulty payload assembly.

Loading next visibility...
Identifier
44982, 2006-062S
Orbit
HEO
Country
Flag of CISCIS
Related business
Manufacturer
RKKE
Mission
Spacecraft
Bus & Motor
Unknown
Mass
Unknown
Launch date (UTC)
2006-12-25 (19 years ago)
Launch vehicle
Unknown
Launch site
Tyuratam Missile And Space Complex (TTMTR)
Object type
Payload
Rocket body
Debris
Shape & HBR
Unknown shape, 0.6 m
Radar Cross Section
Medium (>0.1 m² and <1 m²)

Expand to show TLE details & history
Last TLE update: 2 days ago

TLE from 2 days ago
0 SL-12 DEB
1 44982U 06062S   25345.34423368  .00000315  00000-0  36703-2 0  9993
2 44982  64.9707  68.9537 5551161 277.5366  25.8392  4.28217385 95519
Epoch: 2025-12-11T08:15Z
TLE epoch observation values (Epoch: 2025-12-11T08:15:41.789Z)
Latitude
0.00004°
Longitude
-135.26341°
Altitude
3,968.697 km
Speed
7.223 km/s
True Right ascension
04h 35m 50s
True Declination
0° 00' 00"
Sunlit
Object was in full shadow at epoch
Visualization orbit readout
Latitude
Unknown
Longitude
Unknown
Altitude
Unknown
Speed
Unknown
Apparent Right ascension
Unknown
Apparent Declination
Unknown
Sunlit
N/A
Visualization observer readout
Local Sidereal Time
00:30:29
Azimuth
Unknown
Elevation
Unknown
Doppler factor
Unknown
Orbital elements
Apogee altitude
18,531.003 km
Perigee altitude
747.81 km
Semi-major axis
16,017.544 km
Eccentricity
0.55512
Inclination
64.9707°
RAAN
68.9537°
Arg. of periapsis
277.5366°
True anomaly
82.57404°
Mean anomaly
25.8392°
Eccentric anomaly
50.31638°
Mean motion
1.07065 °/min
Orbital period
336.24 mins
BSTAR
0.0036703
Loading maneuver chart data...
Computing Atmospheric mass density...
Loading historical data...
Loading historical data...
Loading historical data...
Loading historical data...
Loading historical data...
Loading historical data...
Loading historical data...

Documentation

Showing up to 5 results
|